Date,TemperatureHighF,TemperatureAvgF,TemperatureLowF,DewpointHighF,DewpointAvgF,DewpointLowF,HumidityHigh,HumidityAvg,HumidityLow,PressureMaxIn,PressureMinIn,WindSpeedMaxMPH,WindSpeedAvgMPH,GustSpeedMaxMPH,PrecipitationSumIn
2013-4-1,64,52,39,51,42,30,99,73,36,29.69,29.53,10,4,24,0.01
2013-4-2,57,47,36,32,20,8,58,36,17,29.85,29.69,7,2,17,0.00
2013-4-3,59,46,33,23,17,12,62,33,18,29.91,29.81,6,2,15,0.00
2013-4-4,47,41,38,38,30,15,98,70,28,29.83,29.61,8,4,17,0.65
2013-4-5,66,48,38,46,38,31,99,76,29,29.70,29.59,6,2,12,0.01
2013-4-6,84,67,57,41,35,26,48,32,18,29.82,29.69,5,1,11,0.00
2013-4-7,75,62,46,45,40,35,69,47,30,29.80,29.68,11,3,29,0.00
2013-4-8,79,66,52,54,48,43,75,55,36,29.75,29.65,9,2,19,0.00
2013-4-9,83,69,54,57,53,48,84,59,39,29.83,29.67,8,2,17,0.00
2013-4-10,87,71,58,60,56,53,84,61,36,29.76,29.54,10,2,21,0.00
2013-4-11,83,72,61,61,55,50,98,60,34,29.56,29.31,10,2,24,0.32
2013-4-12,66,59,52,60,48,36,99,70,37,29.58,29.24,10,4,24,0.13
2013-4-13,74,58,45,43,37,27,78,49,18,29.71,29.58,8,3,17,0.00
2013-4-14,68,52,46,44,38,36,75,60,41,29.70,29.66,4,1,8,0.00
2013-4-15,83,80,77,60,59,57,51,48,44,30.14,30.03,8,4,11,0.00
2013-4-16,85,75,71,62,62,60,74,65,45,30.08,30.03,4,2,8,0.00
2013-4-17,71,64,62,63,61,60,97,89,74,30.21,29.97,5,2,14,0.20
2013-4-18,85,72,58,64,57,49,99,66,30,29.98,29.75,10,2,20,0.01
2013-4-19,74,59,46,63,50,30,98,73,55,29.96,29.61,12,4,26,0.46
2013-4-20,68,47,34,43,29,21,82,54,19,30.13,29.90,7,2,17,0.00
2013-4-21,70,54,41,36,32,28,66,44,22,30.11,29.96,4,2,12,0.00
2013-4-22,74,58,45,43,38,35,72,49,27,30.06,29.86,4,2,10,0.00
2013-4-23,78,61,46,49,39,32,72,45,30,29.94,29.74,4,1,11,0.00
2013-4-24,74,60,46,61,51,40,93,74,47,29.93,29.70,12,3,27,0.12
2013-4-25,68,52,38,40,35,25,87,56,21,30.06,27.76,5,1,15,0.00
2013-4-26,75,56,39,44,36,21,85,51,17,30.12,30.00,6,1,16,0.00
2013-4-27,57,55,53,55,50,44,96,85,61,30.05,29.85,3,1,9,0.14
2013-4-28,55,54,52,55,52,50,99,96,87,29.87,29.68,3,1,8,0.92
2013-4-29,79,62,51,58,54,51,99,80,43,29.76,29.67,6,1,12,0.00
2013-4-30,86,69,54,60,54,48,97,65,28,29.81,29.69,3,1,8,0.00